Home > Weather > Cleveland > Past weeks

Flag for USA Past Weather in Cleveland, Ohio, USA — Yesterday and Last 2 Weeks

Now
73 °F

Passing clouds.


Feels Like: 77 °F
Forecast: 65 / 77 °F
Wind: 3 mph from Southeast

Location: Cleveland-Hopkins International Airport

Current Time: May 30, 2016 at 10:20:51 PM

Latest Report: May 30, 2016 at 9:51 PM


Visibility: 10 mi

Pressure: 29.98 "Hg

Humidity: 53%

Dew Point: 55 °F

Location of ClevelandLocation

Past Weather in Cleveland — Graph

°F

Cleveland Temperature Yesterday

Maximum temperature yesterday: 85 °F (at 4:51 PM)
Minimum temperature yesterday: 66 °F (at 9:56 PM)
Average temperature yesterday: 75 °F

High & Low Weather Summary for the Past Weeks

 TemperatureHumidityPressure
High88 °F (May 27, 4:51 PM)91% (May 30, 2:51 AM)30.26 "Hg (May 30, 2:51 AM)
Low37 °F (May 16, 3:51 AM)23% (May 24, 7:51 PM)29.93 "Hg (May 26, 8:51 PM)
Average66 °F59%30.09 "Hg
* Reported May 15 8:51 PM — May 30 8:51 PM, Cleveland, Weather by CustomWeather, © 2016

Note: Actual official high and low records may vary slightly from our data, if they occured in-between our weather recording intervals... More about our weather records

Advertising

Cleveland Weather History for the Previous 24 Hours

Scroll right to see more
 ConditionsComfort  
Time TempWeatherWind HumidityBarometerVisibility
8:51 PM
Mon, May 30
77 °FPassing clouds.6 mph44%29.96 "Hg10 mi
7:51 PM79 °FPassing clouds.6 mph44%29.97 "Hg10 mi
6:51 PM82 °FPassing clouds.3 mph38%29.97 "Hg10 mi
5:51 PM82 °FPassing clouds.7 mph37%29.97 "Hg10 mi
4:51 PM82 °FScattered clouds.12 mph35%29.98 "Hg10 mi
3:51 PM83 °FScattered clouds.12 mph37%30.00 "Hg10 mi
2:51 PM81 °FScattered clouds.10 mph41%30.02 "Hg10 mi
1:51 PM81 °FScattered clouds.12 mph45%30.02 "Hg10 mi
12:51 PM80 °FScattered clouds.10 mph45%30.02 "Hg10 mi
11:51 AM80 °FScattered clouds.8 mph49%30.02 "Hg10 mi
10:51 AM78 °FScattered clouds.10 mph50%30.02 "Hg10 mi
9:51 AM77 °FScattered clouds.7 mph56%30.03 "Hg10 mi
8:51 AM72 °FScattered clouds.5 mph68%30.01 "Hg10 mi
7:51 AM68 °FScattered clouds.5 mph78%30.01 "Hg10 mi
6:51 AM64 °FPassing clouds.5 mph87%30.01 "Hg10 mi
5:51 AM63 °FPassing clouds.3 mph90%30.00 "Hg8 mi
4:51 AM64 °FPassing clouds.6 mph87%30.00 "Hg10 mi
3:51 AM64 °FPassing clouds.6 mph87%29.99 "Hg10 mi
2:51 AM65 °FPassing clouds.5 mph91%29.99 "Hg8 mi
1:51 AM66 °FPartly cloudy.6 mph84%29.99 "Hg10 mi
12:51 AM66 °FPassing clouds.5 mph87%29.99 "Hg10 mi
11:51 PM
Sun, May 29
67 °FPassing clouds.8 mph81%29.99 "Hg10 mi
10:51 PM66 °FPartly cloudy.8 mph84%30.01 "Hg10 mi
Weather by CustomWeather, © 2016

See weather overviewHow to use our weather pages